| time (UTC) | temp F | wind direction | speed MPH | gust MPH | rain 1hr in | rain 24hr in | rain mn in | humidity % | barometer mb |
| 20260504185022 | 67 | 180 | 9.0 | 16.0 | 0.00 | 0.00 | 0.00 | 42 | 1011.1 |
| 20260504184022 | 66 | 248 | 10.0 | 19.0 | 0.00 | 0.00 | 0.00 | 42 | 1011.0 |
| 20260504183017 | 66 | 248 | 11.0 | 18.0 | 0.00 | 0.00 | 0.00 | 43 | 1011.3 |
| 20260504182017 | 65 | 158 | 7.0 | 16.0 | 0.00 | 0.00 | 0.00 | 45 | 1011.4 |
| 20260504181016 | 65 | 225 | 9.0 | 18.0 | 0.00 | 0.00 | 0.00 | 45 | 1011.5 |
| 20260504180032 | 65 | 158 | 11.0 | 20.0 | 0.00 | 0.00 | 0.00 | 44 | 1011.6 |
| 20260504175017 | 64 | 180 | 9.0 | 14.0 | 0.00 | 0.00 | 0.00 | 45 | 1011.6 |
| 20260504174016 | 64 | 225 | 10.0 | 17.0 | 0.00 | 0.00 | 0.00 | 44 | 1011.9 |
| 20260504173027 | 64 | 180 | 11.0 | 19.0 | 0.00 | 0.00 | 0.00 | 44 | 1011.9 |
| 20260504172026 | 64 | 225 | 9.0 | 21.0 | 0.00 | 0.00 | 0.00 | 45 | 1012.2 |
| 20260504171021 | 63 | 180 | 11.0 | 20.0 | 0.00 | 0.00 | 0.00 | 45 | 1012.4 |
| 20260504151036 | 58 | 225 | 10.0 | 17.0 | 0.00 | 0.00 | 0.00 | 46 | 1013.6 |
| 20260504141022 | 56 | 180 | 5.0 | 8.0 | 0.00 | 0.00 | 0.00 | 53 | 1013.8 |
| 20260504120141 | 0 | 0.0 | 0.0 | 0.00 | 0.00 | 0.00 | |||
| 20260504110516 | 0 | 0.0 | 0.0 | 0.00 | 0.00 | 0.00 | |||
| 20260504100521 | 0 | 0.0 | 0.0 | 0.00 | 0.00 | 0.00 | |||
| 20260504081016 | 48 | 225 | 11.0 | 16.0 | 0.00 | 0.00 | 0.00 | 55 | 1014.1 |
| 20260504050015 | 50 | 248 | 15.0 | 18.0 | 0.00 | 0.00 | 0.00 | 51 | 1014.3 |
| 20260504045015 | 50 | 248 | 16.0 | 21.0 | 0.00 | 0.00 | 0.00 | 50 | 1014.2 |
| 20260504044015 | 50 | 248 | 14.0 | 18.0 | 0.00 | 0.00 | 0.00 | 50 | 1014.2 |
| 20260504043016 | 50 | 248 | 13.0 | 18.0 | 0.00 | 0.00 | 0.00 | 50 | 1014.3 |
| 20260504042016 | 51 | 248 | 14.0 | 19.0 | 0.00 | 0.00 | 0.00 | 49 | 1014.2 |
| 20260504041035 | 50 | 225 | 13.0 | 17.0 | 0.00 | 0.00 | 0.00 | 50 | 1014.1 |
| 20260504040035 | 50 | 248 | 13.0 | 19.0 | 0.00 | 0.00 | 0.00 | 50 | 1014.0 |
| 20260504035017 | 51 | 248 | 14.0 | 18.0 | 0.00 | 0.00 | 0.00 | 49 | 1014.0 |
| 20260504034017 | 51 | 248 | 12.0 | 16.0 | 0.00 | 0.00 | 0.00 | 48 | 1013.9 |
| 20260504033037 | 51 | 248 | 13.0 | 18.0 | 0.00 | 0.00 | 0.00 | 48 | 1013.8 |
| 20260504032017 | 52 | 248 | 15.0 | 20.0 | 0.00 | 0.00 | 0.00 | 47 | 1013.7 |
| 20260504031017 | 52 | 248 | 15.0 | 19.0 | 0.00 | 0.00 | 0.00 | 47 | 1013.7 |
| 20260504030017 | 52 | 248 | 15.0 | 19.0 | 0.00 | 0.00 | 0.00 | 46 | 1013.7 |
| 20260504025037 | 52 | 248 | 15.0 | 17.0 | 0.00 | 0.00 | 0.00 | 45 | 1013.7 |
| 20260504024017 | 53 | 248 | 15.0 | 19.0 | 0.00 | 0.00 | 0.00 | 44 | 1013.8 |
| 20260504023017 | 53 | 248 | 16.0 | 20.0 | 0.00 | 0.00 | 0.00 | 44 | 1013.6 |
| 20260504022017 | 53 | 248 | 16.0 | 19.0 | 0.00 | 0.00 | 0.00 | 45 | 1013.8 |
| 20260504021017 | 53 | 270 | 16.0 | 19.0 | 0.00 | 0.00 | 0.00 | 45 | 1013.8 |
| 20260504020017 | 53 | 270 | 14.0 | 17.0 | 0.00 | 0.00 | 0.00 | 45 | 1013.8 |
| 20260504015017 | 53 | 270 | 16.0 | 19.0 | 0.00 | 0.00 | 0.00 | 44 | 1013.7 |
| 20260504014022 | 53 | 270 | 17.0 | 21.0 | 0.00 | 0.00 | 0.00 | 44 | 1013.6 |
| 20260504013017 | 53 | 270 | 17.0 | 21.0 | 0.00 | 0.00 | 0.00 | 44 | 1013.6 |
| 20260504012017 | 53 | 270 | 16.0 | 19.0 | 0.00 | 0.00 | 0.00 | 44 | 1013.6 |
| 20260504011017 | 53 | 270 | 17.0 | 21.0 | 0.00 | 0.00 | 0.00 | 44 | 1013.4 |
| 20260504010017 | 53 | 270 | 20.0 | 25.0 | 0.00 | 0.00 | 0.00 | 43 | 1013.2 |
| 20260504005017 | 53 | 270 | 19.0 | 25.0 | 0.00 | 0.00 | 0.00 | 44 | 1013.1 |
| 20260504004017 | 54 | 270 | 19.0 | 24.0 | 0.00 | 0.00 | 0.00 | 43 | 1013.1 |
| 20260504003024 | 54 | 270 | 18.0 | 23.0 | 0.00 | 0.00 | 0.00 | 44 | 1013.0 |
| 20260504002042 | 54 | 270 | 17.0 | 20.0 | 0.00 | 0.00 | 0.00 | 43 | 1012.9 |
| 20260504001017 | 54 | 270 | 17.0 | 23.0 | 0.00 | 0.00 | 0.00 | 43 | 1012.7 |
| 20260504000024 | 54 | 270 | 18.0 | 23.0 | 0.00 | 0.00 | 0.00 | 43 | 1012.6 |
| 20260503235017 | 55 | 270 | 20.0 | 27.0 | 0.00 | 0.00 | 0.00 | 42 | 1012.5 |
| 20260503234017 | 55 | 270 | 20.0 | 25.0 | 0.00 | 0.00 | 0.00 | 42 | 1012.5 |
| 20260503233025 | 55 | 270 | 19.0 | 24.0 | 0.00 | 0.00 | 0.00 | 41 | 1012.5 |
| 20260503232017 | 55 | 270 | 22.0 | 29.0 | 0.00 | 0.00 | 0.00 | 41 | 1012.5 |
| 20260503231017 | 55 | 270 | 17.0 | 27.0 | 0.00 | 0.00 | 0.00 | 40 | 1012.5 |
| 20260503230042 | 55 | 293 | 21.0 | 31.0 | 0.00 | 0.00 | 0.00 | 41 | 1012.3 |
| 20260503225017 | 55 | 293 | 23.0 | 33.0 | 0.00 | 0.00 | 0.00 | 40 | 1012.2 |
| 20260503224022 | 55 | 270 | 20.0 | 26.0 | 0.00 | 0.00 | 0.00 | 40 | 1012.3 |
| 20260503223059 | 55 | 270 | 21.0 | 29.0 | 0.00 | 0.00 | 0.00 | 39 | 1012.2 |
| 20260503222017 | 56 | 270 | 20.0 | 28.0 | 0.00 | 0.00 | 0.00 | 40 | 1012.1 |
| 20260503221016 | 55 | 270 | 21.0 | 27.0 | 0.00 | 0.00 | 0.00 | 40 | 1012.2 |
| 20260503220036 | 56 | 293 | 22.0 | 31.0 | 0.00 | 0.00 | 0.00 | 39 | 1012.3 |
| 20260503215042 | 55 | 270 | 23.0 | 34.0 | 0.00 | 0.00 | 0.00 | 39 | 1012.2 |
| 20260503214016 | 55 | 293 | 22.0 | 32.0 | 0.00 | 0.00 | 0.00 | 40 | 1012.2 |
| 20260503213023 | 55 | 270 | 14.0 | 27.0 | 0.00 | 0.00 | 0.00 | 40 | 1012.1 |
| 20260503212017 | 54 | 293 | 20.0 | 26.0 | 0.00 | 0.00 | 0.00 | 40 | 1012.2 |
| 20260503211017 | 54 | 293 | 19.0 | 24.0 | 0.00 | 0.00 | 0.00 | 39 | 1012.2 |
| 20260503210017 | 54 | 270 | 22.0 | 30.0 | 0.00 | 0.00 | 0.00 | 39 | 1012.1 |
| 20260503205017 | 54 | 293 | 22.0 | 32.0 | 0.00 | 0.00 | 0.00 | 39 | 1012.1 |
| 20260503204037 | 54 | 293 | 21.0 | 27.0 | 0.00 | 0.00 | 0.00 | 39 | 1012.2 |
| 20260503203024 | 53 | 293 | 27.0 | 36.0 | 0.00 | 0.00 | 0.00 | 38 | 1012.1 |
| 20260503202016 | 53 | 293 | 23.0 | 32.0 | 0.00 | 0.00 | 0.00 | 38 | 1012.2 |
| 20260503201017 | 54 | 293 | 23.0 | 30.0 | 0.00 | 0.00 | 0.00 | 37 | 1012.3 |
| 20260503200058 | 53 | 293 | 20.0 | 30.0 | 0.00 | 0.00 | 0.00 | 37 | 1012.4 |
| 20260503195016 | 53 | 270 | 23.0 | 32.0 | 0.00 | 0.00 | 0.00 | 38 | 1012.3 |
| 20260503194016 | 53 | 293 | 24.0 | 32.0 | 0.00 | 0.00 | 0.00 | 40 | 1012.5 |
| 20260503193037 | 52 | 293 | 23.0 | 31.0 | 0.00 | 0.00 | 0.00 | 40 | 1012.8 |
| 20260503192017 | 51 | 293 | 30.0 | 39.0 | 0.00 | 0.00 | 0.00 | 40 | 1012.6 |
| 20260503191027 | 51 | 293 | 27.0 | 36.0 | 0.00 | 0.00 | 0.00 | 40 | 1013.1 |
| 20260503190018 | 51 | 293 | 24.0 | 33.0 | 0.00 | 0.00 | 0.00 | 41 | 1012.8 |